Location: Newark
(45.2500°N, 7.5833°E)
Time: 02:21:12
(UTC+00:00)

CUTE-I - Visible Passes

Search period start: 28 February 2020 00:00
Search period end: 09 March 2020 00:00
Orbit: 810 x 825 km, 98.7° (Epoch: 25 February)

Date Brightness Start Highest point End Pass type
(mag) Time Alt. Az. Time Alt. Az. Time Alt. Az.
28 Feb ? 05:08:41 10° NE 05:13:24 31° E 05:18:06 10° SSE visible
28 Feb ? 18:14:13 10° SW 18:17:58 19° W 18:21:45 10° NW visible
29 Feb ? 04:47:50 10° NE 04:51:45 20° E 04:55:40 10° SE visible
29 Feb ? 17:51:44 10° SSW 17:56:20 29° W 18:00:56 10° NW visible
01 Mar ? 04:27:38 10° ENE 04:30:03 13° E 04:32:29 10° ESE visible
03 Mar ? 05:22:46 10° NNE 05:27:49 40° E 05:32:51 10° SSE visible
03 Mar ? 18:29:38 10° WSW 18:32:28 14° W 18:35:19 10° NW visible
04 Mar ? 05:01:43 10° NE 05:06:15 27° E 05:10:43 10° SSE visible
04 Mar ? 18:06:41 10° SW 18:10:47 22° W 18:14:54 10° NW visible
05 Mar ? 04:41:02 10° NE 04:44:35 18° E 04:48:07 10° SE visible
05 Mar ? 17:44:23 10° SSW 17:49:09 34° W 17:53:59 10° NNW visible
06 Mar ? 04:21:22 10° ENE 04:22:51 11° E 04:24:20 10° ESE visible
07 Mar ? 18:46:08 10° W 18:47:01 10° W 18:47:53 10° WNW visible
08 Mar ? 05:15:46 10° NNE 05:20:41 35° E 05:25:34 10° SSE visible
08 Mar ? 18:21:54 10° SW 18:25:16 17° W 18:28:39 10° NW visible
